Find Starlink 5571

NORAD ID: 55380 Int'l Des: 2023-013 Owner: SPXS Country: US Constellation: starlink operational
LEOCIRCULAR

リアルタイム位置

3D地球を読み込み中...

Starlink 5571について

説明を読み込み中...

次回通過

Passes for default location (London). Set your location on the main map for personalized predictions.

高度履歴

Loading altitude history...

軌道要素

1 55380U 23013BB 26107.29047398 .00002953 00000-0 22247-3 0 9997
2 55380 43.0008 76.9122 0000676 306.0824 53.9957 15.04404507177673
Epoch: Apr 17, 2026 • Age: 11 hours

現在のステータス

高度 559.6 km
速度 7.58 km/s
衛星直下点 -26.46°S, 72.7°W
打ち上げ日 Jan 26, 2023
運用期間 3.2 years
タイプ internet

技術仕様

分類 Payload
質量 305.00 kg
乾燥質量 290.00 kg
総質量 305.00 kg
長さ 0.20 m
直径 2.80 m
スパン 9.00 m
形状 Box + pan
製造者 SPXS
バスタイプ Starlink
フェーズステータス In Orbit
所有者/国 SPXS/US

Most Searched